GW6374 Weather Reports


time (UTC)temp
F
wind
direction
speed
knots
gust
knots
rain 1hr
in
rain 24hr
in
rain mn
in
humidity
%
barometer
mb
20260507081554 38 119 2.6 5.2 0.00 0.00 0.00 93 1012.4
20260507081052 38 138 4.3 4.3 0.00 0.00 0.00 92 1012.4
20260507080547 38 145 3.5 4.3 0.00 0.00 0.00 92 1012.3
20260507080044 38 135 4.3 4.3 0.00 0.00 0.00 92 1012.5
20260507075539 38 127 3.5 4.3 0.00 0.00 0.00 91 1012.4
20260507075036 38 132 5.2 5.2 0.00 0.00 0.00 90 1012.4
20260507074532 39 129 2.6 4.3 0.00 0.00 0.00 90 1012.4
20260507074031 39 122 2.6 3.5 0.00 0.00 0.00 90 1012.5
20260507073527 39 135 4.3 4.3 0.00 0.00 0.00 90 1012.4
20260507073024 39 125 2.6 4.3 0.00 0.00 0.00 90 1012.2
20260507072521 39 135 3.5 3.5 0.00 0.00 0.00 90 1012.2
20260507072018 39 139 3.5 4.3 0.00 0.00 0.00 88 1012.1
20260507071516 39 115 2.6 3.5 0.00 0.00 0.00 89 1012.2
20260507071012 39 122 3.5 3.5 0.00 0.00 0.00 89 1012.3
20260507070509 39 120 3.5 3.5 0.00 0.00 0.00 89 1012.5
20260507070010 39 117 2.6 3.5 0.00 0.00 0.00 89 1012.8
20260507065502 40 118 2.6 3.5 0.00 0.00 0.00 89 1012.5
20260507064959 40 126 2.6 3.5 0.00 0.00 0.00 89 1012.7
20260507064458 40 118 2.6 3.5 0.00 0.00 0.00 89 1012.7
20260507063955 40 115 2.6 4.3 0.00 0.00 0.00 89 1012.8
20260507063452 40 122 2.6 3.5 0.00 0.00 0.00 89 1012.7
20260507062949 40 128 2.6 3.5 0.00 0.00 0.00 89 1012.7
20260507062446 40 122 2.6 3.5 0.00 0.00 0.00 89 1012.7
20260507061944 40 121 2.6 3.5 0.00 0.00 0.00 88 1012.7
20260507061442 41 114 2.6 3.5 0.00 0.00 0.00 87 1012.6
20260507060940 41 121 2.6 3.5 0.00 0.00 0.00 86 1012.7
20260507060436 41 121 3.5 3.5 0.00 0.00 0.00 84 1012.5
20260507055933 41 121 2.6 4.3 0.00 0.00 0.00 83 1012.6
20260507055428 41 120 2.6 3.5 0.00 0.00 0.00 81 1012.7
20260507054925 42 123 2.6 3.5 0.00 0.00 0.00 80 1012.7
20260507054421 42 132 2.6 3.5 0.00 0.00 0.00 79 1012.8
20260507053919 42 129 2.6 3.5 0.00 0.00 0.00 79 1012.9
20260507053416 43 126 2.6 3.5 0.00 0.00 0.00 77 1012.8
20260507052915 43 124 2.6 3.5 0.00 0.00 0.00 72 1012.8
20260507052412 44 126 2.6 3.5 0.00 0.00 0.00 71 1013.0
20260507051909 44 121 1.7 3.5 0.00 0.00 0.00 70 1012.7
20260507051407 44 176 1.7 2.6 0.00 0.00 0.00 71 1012.9
20260507050903 44 278 4.3 4.3 0.00 0.00 0.00 70 1012.7
20260507050359 45 282 5.2 7.8 0.00 0.00 0.00 73 1012.9
20260507045856 45 294 7.0 9.6 0.00 0.00 0.00 77 1013.1
20260507045353 45 290 4.3 8.7 0.00 0.00 0.00 74 1012.8
20260507044850 45 299 7.8 9.6 0.00 0.00 0.00 71 1012.9
20260507044347 45 290 8.7 10.4 0.00 0.00 0.00 70 1013.3
20260507043842 45 290 8.7 9.6 0.00 0.00 0.00 69 1013.0
20260507043339 45 299 7.8 11.3 0.00 0.00 0.00 67 1013.0
20260507042836 45 299 9.6 11.3 0.00 0.00 0.00 70 1013.2
20260507042331 45 285 7.0 12.2 0.00 0.00 0.00 66 1013.0
20260507041829 45 294 10.4 11.3 0.00 0.00 0.00 70 1012.9
20260507041325 45 275 5.2 12.2 0.00 0.00 0.00 71 1013.1
20260507040822 45 298 7.0 10.4 0.00 0.00 0.00 73 1013.0
20260507040318 45 295 10.4 10.4 0.00 0.00 0.00 71 1013.0
20260507035814 46 285 6.1 10.4 0.00 0.60 0.60 66 1012.9
20260507035310 46 298 5.2 9.6 0.00 0.60 0.60 69 1012.9
20260507034808 46 282 9.6 11.3 0.00 0.60 0.60 74 1013.0
20260507034305 45 283 9.6 13.0 0.00 0.60 0.60 70 1012.9
20260507033803 45 285 7.8 13.0 0.00 0.60 0.60 74 1012.9
20260507033300 44 213 2.6 7.8 0.00 0.60 0.60 80 1013.0
20260507032757 44 239 1.7 4.3 0.00 0.60 0.60 80 1012.9
20260507032253 44 152 2.6 4.3 0.00 0.60 0.60 80 1012.8
20260507031749 44 219 2.6 4.3 0.00 0.60 0.60 78 1012.7
20260507031247 45 196 1.7 3.5 0.00 0.60 0.60 77 1012.9
20260507030743 45 290 7.0 10.4 0.00 0.60 0.60 78 1012.8
20260507030241 46 216 2.6 8.7 0.00 0.60 0.60 77 1012.9
20260507025738 46 239 1.7 10.4 0.00 0.60 0.60 79 1012.6
20260507025235 46 286 6.1 8.7 0.00 0.60 0.60 81 1012.8
20260507024733 46 286 7.8 10.4 0.00 0.60 0.60 81 1012.8
20260507024230 46 257 3.5 10.4 0.00 0.60 0.60 81 1012.8
20260507023725 45 287 5.2 8.7 0.00 0.60 0.60 80 1012.7
20260507023222 45 285 7.8 10.4 0.00 0.60 0.60 80 1012.7
20260507022720 43 286 6.1 7.8 0.00 0.60 0.60 91 1012.7
20260507022216 43 116 2.6 3.5 0.00 0.60 0.60 94 1012.8
20260507021712 43 114 3.5 3.5 0.00 0.60 0.60 95 1013.0
20260507021207 43 154 1.7 3.5 0.00 0.60 0.60 95 1013.1
20260507020706 43 141 1.7 3.5 0.00 0.60 0.60 96 1012.9
20260507020202 43 119 2.6 3.5 0.00 0.60 0.60 96 1013.0
20260507015700 43 116 1.7 3.5 0.00 0.60 0.60 96 1013.1
20260507015157 43 163 1.7 2.6 0.00 0.60 0.60 96 1012.9
20260507014653 43 141 1.7 3.5 0.00 0.60 0.60 96 1012.6
20260507014150 43 140 1.7 3.5 0.00 0.60 0.60 96 1012.6
20260507013647 43 113 1.7 2.6 0.00 0.60 0.60 96 1012.7
20260507013144 43 113 1.7 3.5 0.00 0.60 0.60 96 1012.6
20260507012642 43 157 1.7 3.5 0.00 0.60 0.60 96 1012.6
20260507012136 43 132 2.6 3.5 0.00 0.60 0.60 96 1012.4
20260507011635 43 114 1.7 3.5 0.00 0.60 0.60 96 1012.7
20260507011131 43 121 2.6 3.5 0.00 0.60 0.60 96 1012.5
20260507010626 43 115 2.6 3.5 0.00 0.60 0.60 96 1012.5
20260507010122 43 123 2.6 3.5 0.00 0.60 0.60 96 1012.4
20260507005620 43 144 1.7 2.6 0.00 0.60 0.60 96 1012.5
20260507005116 43 111 3.5 3.5 0.00 0.60 0.60 96 1012.3
20260507004613 43 121 2.6 2.6 0.00 0.60 0.60 96 1012.3
20260507004110 43 115 2.6 3.5 0.00 0.60 0.60 95 1012.3
20260507003606 43 117 2.6 2.6 0.00 0.60 0.60 95 1012.1
20260507003101 43 118 1.7 3.5 0.00 0.60 0.60 95 1011.9
20260507002558 43 118 2.6 3.5 0.00 0.60 0.60 95 1012.1
20260507002053 43 120 2.6 3.5 0.00 0.60 0.60 95 1012.0
20260507001550 43 111 2.6 2.6 0.00 0.60 0.60 94 1012.0
20260507001048 44 125 1.7 2.6 0.00 0.60 0.60 94 1011.9
20260507000544 44 111 1.7 2.6 0.00 0.60 0.60 94 1011.7
20260507000039 44 119 1.7 3.5 0.00 0.60 0.60 94 1012.0
20260506235537 44 125 3.5 3.5 0.00 0.60 0.60 94 1011.8
20260506235032 44 310 4.3 5.2 0.00 0.60 0.60 94 1011.9
20260506234530 44 301 4.3 7.0 0.00 0.60 0.60 95 1011.8
20260506234027 44 290 6.1 8.7 0.00 0.60 0.60 96 1012.0
20260506233524 43 297 5.2 8.7 0.00 0.60 0.60 96 1011.7
20260506233021 43 319 6.1 7.8 0.00 0.60 0.60 96 1011.6
20260506232517 43 318 7.8 8.7 0.00 0.60 0.60 96 1011.6
20260506232013 44 326 6.1 9.6 0.00 0.60 0.60 97 1011.6
20260506231510 43 300 8.7 10.4 0.02 0.60 0.60 96 1011.6
20260506231008 43 316 3.5 5.2 0.02 0.60 0.60 96 1011.6
20260506230504 43 307 5.2 7.8 0.02 0.60 0.60 96 1011.6
20260506230001 43 320 7.0 9.6 0.02 0.60 0.60 96 1011.6
20260506225458 43 322 7.0 9.6 0.02 0.59 0.59 96 1011.5
20260506224954 43 311 8.7 11.3 0.02 0.59 0.59 96 1011.7
20260506224452 43 311 9.6 12.2 0.00 0.59 0.59 96 1011.5
20260506223948 43 297 9.6 12.2 0.00 0.59 0.59 96 1011.5
20260506223444 43 299 7.8 10.4 0.02 0.59 0.59 95 1011.2
20260506222941 43 313 9.6 12.2 0.00 0.59 0.59 95 1011.2
20260506222438 43 322 7.0 7.8 0.00 0.59 0.59 95 1011.3
20260506221935 43 346 3.5 5.2 0.00 0.59 0.59 94 1011.1
20260506221432 43 10 5.2 7.0 0.02 0.59 0.59 94 1011.1
20260506220930 43 357 5.2 7.8 0.00 0.58 0.58 94 1010.7
20260506220425 43 2 5.2 7.8 0.00 0.58 0.58 92 1010.6
20260506215921 44 358 7.0 9.6 0.00 0.58 0.58 91 1010.5
20260506215418 45 76 7.0 7.0 0.00 0.58 0.58 92 1010.5
20260506214914 45 70 5.2 7.0 0.00 0.58 0.58 92 1010.4
20260506214411 45 66 7.8 7.8 0.00 0.58 0.58 91 1010.2
20260506213908 46 71 8.7 9.6 0.00 0.58 0.58 91 1010.2
20260506213406 46 84 9.6 10.4 0.00 0.58 0.58 91 1010.0
20260506212903 46 82 7.8 10.4 0.00 0.58 0.58 91 1010.0
20260506212359 46 86 8.7 10.4 0.00 0.58 0.58 92 1009.9
20260506211853 46 87 8.7 11.3 0.00 0.58 0.58 91 1009.9
20260506211350 47 88 7.8 12.2 0.00 0.58 0.58 90 1009.8
20260506210847 47 92 9.6 11.3 0.00 0.58 0.58 91 1009.7
20260506210344 47 85 9.6 11.3 0.00 0.58 0.58 90 1009.8
20260506205842 47 95 10.4 12.2 0.00 0.58 0.58 90 1009.8
20260506205337 47 91 10.4 11.3 0.00 0.58 0.58 90 1009.9
20260506204834 47 89 9.6 11.3 0.00 0.58 0.58 90 1009.8
20260506204332 47 101 8.7 12.2 0.00 0.58 0.58 89 1009.9
20260506203829 47 93 9.6 11.3 0.00 0.58 0.58 90 1009.8
20260506203326 47 88 9.6 12.2 0.00 0.58 0.58 90 1009.8
20260506202823 47 80 12.2 12.2 0.00 0.58 0.58 90 1009.8
20260506202320 47 87 10.4 11.3 0.00 0.58 0.58 89 1009.9
20260506201816 47 91 8.7 12.2 0.00 0.58 0.58 89 1009.8
20260506201314 47 81 9.6 10.4 0.00 0.58 0.58 89 1010.0
20260506200811 47 80 9.6 10.4 0.00 0.58 0.58 89 1010.0
20260506200307 47 96 8.7 10.4 0.00 0.58 0.58 89 1010.1
20260506195803 46 92 7.0 10.4 0.00 0.58 0.58 89 1010.1
20260506195300 46 81 8.7 9.6 0.00 0.58 0.58 88 1010.0
20260506194757 46 79 9.6 9.6 0.00 0.58 0.58 89 1010.1
20260506194253 46 77 8.7 9.6 0.00 0.58 0.58 88 1010.1
20260506193751 47 84 7.8 10.4 0.00 0.58 0.58 89 1010.1
20260506193248 47 86 9.6 11.3 0.00 0.58 0.58 88 1009.9
20260506192744 46 85 10.4 12.2 0.00 0.58 0.58 90 1009.8
20260506192241 47 89 7.0 11.3 0.00 0.58 0.58 89 1009.8
20260506191738 46 92 10.4 11.3 0.00 0.58 0.58 90 1009.6
20260506191234 46 91 10.4 12.2 0.00 0.58 0.58 90 1009.8
20260506190732 46 88 7.8 9.6 0.00 0.58 0.58 90 1009.9
20260506190228 46 85 9.6 10.4 0.00 0.58 0.58 90 1009.9
20260506185725 46 87 8.7 10.4 0.00 0.58 0.58 90 1010.0
20260506185221 46 93 7.8 9.6 0.00 0.58 0.58 90 1009.9
20260506184719 46 98 7.0 8.7 0.00 0.58 0.58 90 1010.1
20260506184216 45 96 7.8 9.6 0.00 0.58 0.58 90 1010.4
20260506183713 45 95 6.1 8.7 0.00 0.58 0.58 90 1010.3
20260506183208 45 93 7.8 8.7 0.00 0.58 0.58 89 1010.3
20260506182706 45 109 7.0 9.6 0.00 0.58 0.58 90 1010.1
20260506182203 45 84 7.8 9.6 0.00 0.58 0.58 90 1010.4
20260506181701 45 87 7.8 9.6 0.00 0.58 0.58 90 1010.2
20260506181158 45 93 7.0 9.6 0.00 0.58 0.58 90 1010.1
20260506180655 45 97 7.8 9.6 0.00 0.58 0.58 90 1010.3
20260506180151 45 99 7.0 9.6 0.00 0.58 0.58 90 1010.2
20260506175648 45 86 7.0 9.6 0.00 0.58 0.58 90 1010.4
20260506175145 44 94 6.1 8.7 0.00 0.58 0.58 90 1010.5
20260506174643 44 95 7.8 8.7 0.00 0.58 0.58 90 1010.5
20260506174139 44 98 7.8 8.7 0.00 0.58 0.58 91 1010.3
20260506173637 44 81 7.0 8.7 0.00 0.58 0.58 90 1010.4
20260506173134 44 98 7.0 8.7 0.00 0.58 0.58 92 1010.3
20260506172631 44 91 7.0 7.8 0.00 0.58 0.58 91 1010.3
20260506172127 44 95 7.8 9.6 0.00 0.58 0.58 92 1010.3
20260506171624 44 87 7.0 9.6 0.00 0.58 0.58 93 1010.1
20260506171122 44 87 7.8 9.6 0.00 0.58 0.58 93 1010.2
20260506170620 43 72 9.6 11.3 0.00 0.58 0.58 92 1010.0
20260506170116 44 80 9.6 11.3 0.00 0.58 0.58 93 1010.0
20260506165615 44 71 8.7 10.4 0.00 0.58 0.58 94 1010.1
20260506165110 44 75 9.6 10.4 0.00 0.58 0.58 93 1010.1
20260506164608 44 75 9.6 10.4 0.00 0.58 0.58 92 1010.2
20260506164105 44 70 7.8 9.6 0.00 0.58 0.58 92 1010.3
20260506163600 44 82 7.8 9.6 0.00 0.58 0.58 92 1010.4
20260506163057 44 85 7.8 9.6 0.00 0.58 0.58 93 1010.1
20260506162554 44 87 8.7 9.6 0.00 0.58 0.58 93 1010.1
20260506162051 44 92 7.8 10.4 0.00 0.58 0.58 93 1010.0
20260506161549 44 84 9.6 11.3 0.00 0.58 0.58 93 1010.0
20260506161045 44 94 8.7 10.4 0.00 0.58 0.58 94 1010.0
20260506160543 44 92 7.0 11.3 0.00 0.58 0.58 93 1009.9
20260506160039 44 83 9.6 10.4 0.00 0.58 0.58 93 1010.0
20260506155538 44 93 7.0 10.4 0.00 0.58 0.58 94 1010.2
20260506153709 44 95 9.6 10.4 0.00 0.58 0.58 95 1010.0
20260506153206 44 91 9.6 12.2 0.00 0.58 0.58 94 1009.8
20260506152703 44 93 9.6 12.2 0.00 0.58 0.58 94 1009.7
20260506152201 44 82 9.6 11.3 0.00 0.58 0.58 95 1009.8
20260506151700 44 92 8.7 11.3 0.00 0.58 0.58 95 1009.9
20260506151155 44 94 10.4 12.2 0.02 0.58 0.58 95 1009.9
20260506150652 44 92 10.4 11.3 0.02 0.58 0.58 95 1009.9
20260506150149 44 82 9.6 12.2 0.00 0.58 0.58 95 1009.7
20260506145646 44 93 8.7 13.0 0.00 0.58 0.58 95 1009.7
20260506145143 44 92 8.7 13.0 0.02 0.58 0.58 95 1009.7
20260506144641 44 89 10.4 13.0 0.02 0.58 0.58 94 1009.9
20260506144137 44 86 11.3 12.2 0.02 0.57 0.57 94 1009.8
20260506143635 44 84 10.4 12.2 0.02 0.57 0.57 95 1009.9
20260506143133 44 97 10.4 12.2 0.02 0.57 0.57 94 1009.9
20260506142631 44 81 11.3 13.0 0.02 0.57 0.57 94 1009.7
20260506142129 44 91 8.7 13.0 0.00 0.57 0.57 94 1009.8
20260506141626 44 86 8.7 13.9 0.00 0.57 0.57 94 1009.7
20260506141124 44 157 1.7 7.8 0.00 0.57 0.57 93 1009.5
20260506140621 44 114 4.3 8.7 0.00 0.57 0.57 93 1009.7
20260506140118 44 103 5.2 10.4 0.00 0.57 0.57 93 1009.5
20260506135615 44 115 2.6 12.2 0.00 0.57 0.57 94 1009.6
20260506135111 44 107 5.2 7.8 0.00 0.57 0.57 95 1009.4
20260506134608 44 107 7.8 10.4 0.00 0.57 0.57 95 1009.4
20260506134104 44 100 3.5 7.0 0.02 0.57 0.57 95 1009.5
20260506133602 44 100 5.2 8.7 0.02 0.57 0.57 95 1009.4
20260506133058 44 112 3.5 5.2 0.00 0.56 0.56 95 1009.3
20260506132555 44 106 5.2 8.7 0.00 0.56 0.56 95 1009.3
20260506132053 44 98 6.1 10.4 0.00 0.56 0.56 95 1009.4
20260506131550 44 95 8.7 9.6 0.00 0.56 0.56 95 1009.1
20260506131046 44 116 2.6 4.3 0.02 0.56 0.56 95 1009.3
20260506130543 44 116 4.3 5.2 0.02 0.56 0.56 95 1009.3
20260506130041 44 114 6.1 7.0 0.02 0.56 0.56 95 1009.1
20260506125539 44 120 4.3 7.8 0.02 0.56 0.56 96 1009.1
20260506125036 44 157 4.3 7.0 0.02 0.56 0.56 96 1009.2
20260506124534 44 125 4.3 7.8 0.02 0.55 0.55 95 1008.8
20260506124032 44 86 3.5 6.1 0.07 0.55 0.55 96 1008.8
20260506123529 44 102 4.3 6.1 0.07 0.55 0.55 96 1008.7
20260506123027 44 109 4.3 6.1 0.05 0.54 0.54 96 1008.7
20260506122523 44 127 2.6 5.2 0.02 0.54 0.54 96 1008.6
20260506122022 44 128 4.3 6.1 0.00 0.53 0.53 96 1008.6
20260506121519 44 110 7.0 7.8 0.02 0.53 0.53 96 1008.8
20260506121015 44 130 7.0 10.4 0.02 0.53 0.53 96 1008.6
20260506120513 44 117 4.3 9.6 0.05 0.53 0.53 96 1008.7
20260506120010 44 113 4.3 10.4 0.09 0.53 0.53 96 1008.9
20260506115508 44 114 3.5 7.8 0.09 0.52 0.52 97 1008.9
20260506115006 44 112 6.1 7.8 0.09 0.51 0.51 97 1008.8
20260506114503 44 99 4.3 6.1 0.07 0.50 0.50 97 1008.7
20260506114002 44 116 3.5 6.1 0.07 0.50 0.50 97 1008.9
20260506113459 44 110 4.3 6.1 0.07 0.49 0.49 97 1009.1
20260506112955 44 112 1.7 7.0 0.07 0.48 0.48 97 1009.1
20260506112453 44 132 3.5 8.7 0.05 0.48 0.48 97 1009.2
20260506111950 43 115 4.3 5.2 0.05 0.47 0.47 97 1009.1
20260506111448 44 104 2.6 5.2 0.02 0.47 0.47 97 1008.9
20260506110945 44 123 3.5 5.2 0.02 0.47 0.47 98 1008.8
20260506110443 44 114 4.3 6.1 0.05 0.47 0.47 97 1008.6
20260506105939 44 109 3.5 7.8 0.02 0.46 0.46 97 1008.8
20260506105435 44 114 4.3 4.3 0.02 0.46 0.46 98 1008.6
20260506104933 44 143 4.3 5.2 0.07 0.46 0.46 97 1008.6
20260506104431 44 113 5.2 7.8 0.09 0.45 0.45 97 1008.1
20260506103929 44 86 5.2 9.6 0.09 0.45 0.45 97 1008.2
20260506103426 44 93 3.5 5.2 0.09 0.44 0.44 97 1008.3
20260506102923 44 131 3.5 5.2 0.05 0.42 0.42 97 1008.4
20260506102421 44 105 3.5 5.2 0.02 0.42 0.42 97 1008.5
20260506101918 44 113 5.2 5.2 0.05 0.42 0.42 97 1008.6
20260506101414 44 93 5.2 7.8 0.07 0.41 0.41 97 1008.6
20260506100911 44 108 2.6 5.2 0.07 0.41 0.41 97 1008.8
20260506100410 44 100 4.3 7.0 0.07 0.40 0.40 97 1008.8
20260506095907 44 114 5.2 7.8 0.05 0.39 0.39 97 1008.8
20260506095406 44 109 4.3 5.2 0.02 0.39 0.39 97 1008.9
20260506094902 44 111 5.2 7.8 0.00 0.39 0.39 97 1008.9
20260506094401 44 96 5.2 12.2 0.02 0.39 0.39 97 1008.8
20260506093858 45 96 11.3 15.6 0.05 0.38 0.38 97 1009.1
20260506093355 45 96 13.0 15.6 0.07 0.38 0.38 97 1009.1
20260506092853 45 92 10.4 15.6 0.05 0.37 0.37 97 1009.1
20260506092351 45 88 13.0 14.8 0.07 0.37 0.37 97 1008.9
20260506091847 45 98 8.7 14.8 0.07 0.36 0.36 97 1009.2
20260506091345 45 99 10.4 13.9 0.09 0.36 0.36 97 1009.2
20260506090842 45 89 13.0 14.8 0.07 0.35 0.35 97 1009.1
20260506090340 46 93 11.3 14.8 0.07 0.34 0.34 97 1009.2
20260506085836 45 97 12.2 15.6 0.07 0.34 0.34 97 1009.1
20260506085332 45 95 10.4 16.5 0.05 0.33 0.33 97 1008.7
20260506084829 45 110 4.3 9.6 0.05 0.33 0.33 96 1008.8
20260506084326 45 93 8.7 9.6 0.05 0.32 0.32 96 1008.8
20260506083822 45 120 2.6 8.7 0.02 0.32 0.32 96 1008.8
20260506083320 45 119 5.2 12.2 0.02 0.32 0.32 96 1009.2
20260506082817 46 88 11.3 12.2 0.05 0.32 0.32 96 1008.9
20260506082314 46 88 12.2 14.8 0.05 0.31 0.31 97 1008.8